Year,Month,Day,Hour,Minute,Value (Times are PST for temperature in C)
2009,07,14,07,59,12.60
2009,07,14,08,00,12.60
2009,07,14,08,01,12.70
2009,07,14,08,02,12.70
2009,07,14,08,03,12.70
2009,07,14,08,04,12.70
2009,07,14,08,05,12.70
2009,07,14,08,06,12.70
2009,07,14,08,07,12.70
2009,07,14,08,08,12.70
2009,07,14,08,09,12.80
2009,07,14,08,10,12.80
2009,07,14,08,11,12.80
2009,07,14,08,12,12.80
2009,07,14,08,13,12.80
2009,07,14,08,14,12.90
2009,07,14,08,15,12.90
2009,07,14,08,16,12.90
2009,07,14,08,17,12.90
2009,07,14,08,18,12.90
2009,07,14,08,19,13.00
2009,07,14,08,20,13.00
2009,07,14,08,21,13.10
2009,07,14,08,22,13.10
2009,07,14,08,23,13.10
2009,07,14,08,24,13.20
2009,07,14,08,25,13.20
2009,07,14,08,26,13.20
2009,07,14,08,27,13.20
2009,07,14,08,28,13.30
2009,07,14,08,29,13.30
2009,07,14,08,30,13.30
2009,07,14,08,31,13.30
2009,07,14,08,32,13.30
2009,07,14,08,33,13.30
2009,07,14,08,34,13.30
2009,07,14,08,35,13.30
2009,07,14,08,36,13.30
2009,07,14,08,37,13.30
2009,07,14,08,38,13.40
2009,07,14,08,39,13.40
2009,07,14,08,40,13.40
2009,07,14,08,41,13.50
2009,07,14,08,42,13.50
2009,07,14,08,43,13.50
2009,07,14,08,44,13.50
2009,07,14,08,45,13.50
2009,07,14,08,46,13.60
2009,07,14,08,47,13.60
2009,07,14,08,48,13.60
2009,07,14,08,49,13.70
2009,07,14,08,50,13.70
2009,07,14,08,51,13.70
2009,07,14,08,52,13.70
2009,07,14,08,53,13.80
2009,07,14,08,54,13.80
2009,07,14,08,55,13.80
2009,07,14,08,56,13.80
2009,07,14,08,57,13.80
2009,07,14,08,58,13.80
2009,07,14,08,59,13.80
2009,07,14,09,00,13.80
2009,07,14,09,01,13.80
2009,07,14,09,02,13.80
2009,07,14,09,03,13.90
2009,07,14,09,04,13.90
2009,07,14,09,05,13.90
2009,07,14,09,06,13.90
2009,07,14,09,07,14.00
2009,07,14,09,08,14.10
2009,07,14,09,09,14.10
2009,07,14,09,10,14.20
2009,07,14,09,11,14.20
2009,07,14,09,12,14.30
2009,07,14,09,13,14.30
2009,07,14,09,14,14.40
2009,07,14,09,15,14.40
2009,07,14,09,16,14.30
2009,07,14,09,17,14.30
2009,07,14,09,18,14.30
2009,07,14,09,19,14.20
2009,07,14,09,20,14.20
2009,07,14,09,21,14.20
2009,07,14,09,22,14.10
2009,07,14,09,23,14.10
2009,07,14,09,24,14.10
2009,07,14,09,25,14.10
2009,07,14,09,26,14.20
2009,07,14,09,27,14.20
2009,07,14,09,28,14.30
2009,07,14,09,29,14.40
2009,07,14,09,30,14.50
2009,07,14,09,31,14.50
2009,07,14,09,32,14.60
2009,07,14,09,33,14.60
2009,07,14,09,34,14.70
2009,07,14,09,35,14.70
2009,07,14,09,36,14.70
2009,07,14,09,37,14.80
2009,07,14,09,38,14.80
2009,07,14,09,39,14.90
2009,07,14,09,40,14.90
2009,07,14,09,41,14.90
2009,07,14,09,42,14.80
2009,07,14,09,43,14.70
2009,07,14,09,44,14.70
2009,07,14,09,45,14.60
2009,07,14,09,46,14.60
2009,07,14,09,47,14.60
2009,07,14,09,48,14.60
2009,07,14,09,49,14.70
2009,07,14,09,50,14.80
2009,07,14,09,51,15.00
2009,07,14,09,52,15.00
2009,07,14,09,53,15.00
2009,07,14,09,54,15.00
2009,07,14,09,55,15.10
2009,07,14,09,56,15.20
2009,07,14,09,57,15.30
2009,07,14,09,58,15.40
2009,07,14,09,59,15.50
2009,07,14,10,00,15.50
2009,07,14,10,01,15.50
2009,07,14,10,02,15.50
2009,07,14,10,03,15.50
2009,07,14,10,04,15.50
2009,07,14,10,05,15.50
2009,07,14,10,06,15.50
2009,07,14,10,07,15.50
2009,07,14,10,08,15.60
2009,07,14,10,09,15.60
2009,07,14,10,10,15.60
2009,07,14,10,11,15.70
2009,07,14,10,12,15.80
2009,07,14,10,13,15.80
2009,07,14,10,14,16.00
2009,07,14,10,15,16.10
2009,07,14,10,16,16.20
2009,07,14,10,17,16.20
2009,07,14,10,18,16.30
2009,07,14,10,19,16.30
2009,07,14,10,20,16.30
2009,07,14,10,21,16.30
2009,07,14,10,22,16.30
2009,07,14,10,23,16.30
2009,07,14,10,24,16.30
2009,07,14,10,25,16.40
2009,07,14,10,26,16.50
2009,07,14,10,27,16.50
2009,07,14,10,28,16.60
2009,07,14,10,29,16.70
2009,07,14,10,30,16.80
2009,07,14,10,31,16.80
2009,07,14,10,32,16.80
2009,07,14,10,33,16.80
2009,07,14,10,34,16.90
2009,07,14,10,35,16.90
2009,07,14,10,36,17.00
2009,07,14,10,37,17.10
2009,07,14,10,38,17.10
2009,07,14,10,39,17.10
2009,07,14,10,40,17.20
2009,07,14,10,41,17.20
2009,07,14,10,42,17.20
2009,07,14,10,43,17.20
2009,07,14,10,44,17.30
2009,07,14,10,45,17.30
2009,07,14,10,46,17.30
2009,07,14,10,47,17.30
2009,07,14,10,48,17.30
2009,07,14,10,49,17.40
2009,07,14,10,50,17.50
2009,07,14,10,51,17.60
2009,07,14,10,52,17.70
2009,07,14,10,53,17.80
2009,07,14,10,54,17.90
2009,07,14,10,55,17.90
2009,07,14,10,56,17.90
2009,07,14,10,57,17.90
2009,07,14,10,58,18.00
2009,07,14,10,59,18.00
2009,07,14,11,00,18.10
2009,07,14,11,01,18.10
2009,07,14,11,02,18.20
2009,07,14,11,03,18.20
2009,07,14,11,04,18.20
2009,07,14,11,05,18.20
2009,07,14,11,06,18.20
2009,07,14,11,07,18.10
2009,07,14,11,08,18.10
2009,07,14,11,09,18.20
2009,07,14,11,10,18.20
2009,07,14,11,11,18.20
2009,07,14,11,12,18.30
2009,07,14,11,13,18.40
2009,07,14,11,14,18.60
2009,07,14,11,15,18.70
2009,07,14,11,16,18.80
2009,07,14,11,17,18.90
2009,07,14,11,18,19.00
2009,07,14,11,19,19.10
2009,07,14,11,20,19.20
2009,07,14,11,21,19.20
2009,07,14,11,22,19.20
2009,07,14,11,23,19.30
2009,07,14,11,24,19.30
2009,07,14,11,25,19.40
2009,07,14,11,26,19.40
2009,07,14,11,27,19.60
2009,07,14,11,28,19.60
2009,07,14,11,29,19.60
2009,07,14,11,30,19.50
2009,07,14,11,31,19.50
2009,07,14,11,32,19.50
2009,07,14,11,33,19.40
2009,07,14,11,34,19.50
2009,07,14,11,35,19.50
2009,07,14,11,36,19.60
2009,07,14,11,37,19.60
2009,07,14,11,38,19.70
2009,07,14,11,39,19.90
2009,07,14,11,40,20.10
2009,07,14,11,41,20.20
2009,07,14,11,42,20.30
2009,07,14,11,43,20.30
2009,07,14,11,44,20.30
2009,07,14,11,45,20.40
2009,07,14,11,46,20.40
2009,07,14,11,47,20.50
2009,07,14,11,48,20.60
2009,07,14,11,49,20.70
2009,07,14,11,50,20.80
2009,07,14,11,51,20.90
2009,07,14,11,52,20.90
2009,07,14,11,53,20.90
2009,07,14,11,54,20.90
2009,07,14,11,55,20.90
2009,07,14,11,56,20.90
2009,07,14,11,57,20.90
2009,07,14,11,58,20.90
2009,07,14,11,59,20.90
2009,07,14,12,00,20.90
2009,07,14,12,01,20.90
2009,07,14,12,02,21.00
2009,07,14,12,03,21.00
2009,07,14,12,04,21.00
2009,07,14,12,05,21.10
2009,07,14,12,06,21.20
2009,07,14,12,07,21.20
2009,07,14,12,08,21.20
2009,07,14,12,09,21.20
2009,07,14,12,10,21.20
2009,07,14,12,11,21.20
2009,07,14,12,12,21.20
2009,07,14,12,13,21.20
2009,07,14,12,14,21.30
2009,07,14,12,15,21.40
2009,07,14,12,16,21.40
2009,07,14,12,17,21.50
2009,07,14,12,18,21.60
2009,07,14,12,19,21.60
2009,07,14,12,20,21.60
2009,07,14,12,21,21.50
2009,07,14,12,22,21.50
2009,07,14,12,23,21.60
2009,07,14,12,24,21.60
2009,07,14,12,25,21.50
2009,07,14,12,26,21.30
2009,07,14,12,27,21.20
2009,07,14,12,28,21.20
2009,07,14,12,29,21.20
2009,07,14,12,30,21.20
2009,07,14,12,31,21.20
2009,07,14,12,32,21.30
2009,07,14,12,33,21.30
2009,07,14,12,34,21.50
2009,07,14,12,35,21.60
2009,07,14,12,36,21.60
2009,07,14,12,37,21.50
2009,07,14,12,38,21.40
2009,07,14,12,39,21.40
2009,07,14,12,40,21.40
2009,07,14,12,41,21.50
2009,07,14,12,42,21.60
2009,07,14,12,43,21.70
2009,07,14,12,44,21.70
2009,07,14,12,45,21.80
2009,07,14,12,46,21.80
2009,07,14,12,47,21.90
2009,07,14,12,48,21.90
2009,07,14,12,49,22.00
2009,07,14,12,50,22.20
2009,07,14,12,51,22.30
2009,07,14,12,52,22.40
2009,07,14,12,53,22.40
2009,07,14,12,54,22.30
2009,07,14,12,55,22.20
2009,07,14,12,56,22.00
2009,07,14,12,57,21.90
2009,07,14,12,58,21.80
2009,07,14,12,59,21.70
2009,07,14,13,00,21.50
2009,07,14,13,01,21.50
2009,07,14,13,02,21.40
2009,07,14,13,03,21.30
2009,07,14,13,04,21.20
2009,07,14,13,05,21.20
2009,07,14,13,06,21.20
2009,07,14,13,07,21.20
2009,07,14,13,08,21.20
2009,07,14,13,09,21.30
2009,07,14,13,10,21.40
2009,07,14,13,11,21.30
2009,07,14,13,12,21.30
2009,07,14,13,13,21.30
2009,07,14,13,14,21.30
2009,07,14,13,15,21.20
2009,07,14,13,16,21.20
2009,07,14,13,17,21.30
2009,07,14,13,18,21.40
2009,07,14,13,19,21.60
2009,07,14,13,20,21.70
2009,07,14,13,21,21.80
2009,07,14,13,22,21.80
2009,07,14,13,23,21.80
2009,07,14,13,24,21.80
2009,07,14,13,25,21.70
2009,07,14,13,26,21.80
2009,07,14,13,27,21.80
2009,07,14,13,28,21.90
2009,07,14,13,29,21.90
2009,07,14,13,30,21.90
2009,07,14,13,31,22.00
2009,07,14,13,32,22.00
2009,07,14,13,33,22.00
2009,07,14,13,34,22.10
2009,07,14,13,35,22.20
2009,07,14,13,36,22.30
2009,07,14,13,37,22.40
2009,07,14,13,38,22.40
2009,07,14,13,39,22.30
2009,07,14,13,40,22.30
2009,07,14,13,41,22.20
2009,07,14,13,42,22.20
2009,07,14,13,43,22.00
2009,07,14,13,44,21.80
2009,07,14,13,45,21.60
2009,07,14,13,46,21.50
2009,07,14,13,47,21.40
2009,07,14,13,48,21.30
2009,07,14,13,49,21.30
2009,07,14,13,50,21.20
2009,07,14,13,51,21.20
2009,07,14,13,52,21.20
2009,07,14,13,53,21.20
2009,07,14,13,54,21.20
2009,07,14,13,55,21.20
2009,07,14,13,56,21.20
2009,07,14,13,57,21.20
2009,07,14,13,58,21.20
2009,07,14,13,59,21.20
2009,07,14,14,00,21.30
2009,07,14,14,01,21.20
2009,07,14,14,02,21.20
2009,07,14,14,03,21.10
2009,07,14,14,04,21.00
2009,07,14,14,05,21.00
2009,07,14,14,06,20.90
2009,07,14,14,07,20.90
2009,07,14,14,08,20.90
2009,07,14,14,09,20.90
2009,07,14,14,10,20.90
2009,07,14,14,11,20.90
2009,07,14,14,12,20.90
2009,07,14,14,13,20.90
2009,07,14,14,14,21.00
2009,07,14,14,15,21.10
2009,07,14,14,16,21.20
2009,07,14,14,17,21.30
2009,07,14,14,18,21.40
2009,07,14,14,19,21.60
2009,07,14,14,20,21.70
2009,07,14,14,21,21.80
2009,07,14,14,22,21.80
2009,07,14,14,23,21.90
2009,07,14,14,24,21.80
2009,07,14,14,25,21.70
2009,07,14,14,26,21.60
2009,07,14,14,27,21.50
2009,07,14,14,28,21.40
2009,07,14,14,29,21.50
2009,07,14,14,30,21.50
2009,07,14,14,31,21.40
2009,07,14,14,32,21.50
2009,07,14,14,33,21.60
2009,07,14,14,34,21.60
2009,07,14,14,35,21.60
2009,07,14,14,36,21.60
2009,07,14,14,37,21.60
2009,07,14,14,38,21.60
2009,07,14,14,39,21.60
2009,07,14,14,40,21.70
2009,07,14,14,41,21.60
2009,07,14,14,42,21.60
2009,07,14,14,43,21.70
2009,07,14,14,44,21.70
2009,07,14,14,45,21.80
2009,07,14,14,46,21.80
2009,07,14,14,47,21.80
2009,07,14,14,48,21.90
2009,07,14,14,49,21.90
2009,07,14,14,50,21.80
2009,07,14,14,51,21.80
2009,07,14,14,52,21.90
2009,07,14,14,53,22.00
2009,07,14,14,54,22.10
2009,07,14,14,55,22.30
2009,07,14,14,56,22.50
2009,07,14,14,57,22.60
2009,07,14,14,58,22.50
2009,07,14,14,59,22.40
2009,07,14,15,00,22.30
2009,07,14,15,01,22.30
2009,07,14,15,02,22.30
2009,07,14,15,03,22.30
2009,07,14,15,04,22.30
2009,07,14,15,05,22.30
2009,07,14,15,06,22.30
2009,07,14,15,07,22.30
2009,07,14,15,08,22.30
2009,07,14,15,09,22.20
2009,07,14,15,10,22.20
2009,07,14,15,11,22.00
2009,07,14,15,12,21.90
2009,07,14,15,13,21.80
2009,07,14,15,14,21.70
2009,07,14,15,15,21.60
2009,07,14,15,16,21.60
2009,07,14,15,17,21.60
2009,07,14,15,18,21.60
2009,07,14,15,19,21.70
2009,07,14,15,20,21.70
2009,07,14,15,21,21.80
2009,07,14,15,22,21.90
2009,07,14,15,23,22.00
2009,07,14,15,24,22.10
2009,07,14,15,25,22.10
2009,07,14,15,26,22.10
2009,07,14,15,27,22.20
2009,07,14,15,28,22.20
2009,07,14,15,29,22.10
2009,07,14,15,30,22.10
2009,07,14,15,31,22.20
2009,07,14,15,32,22.20
2009,07,14,15,33,22.30
2009,07,14,15,34,22.30
2009,07,14,15,35,22.20
2009,07,14,15,36,22.10
2009,07,14,15,37,22.10
2009,07,14,15,38,22.00
2009,07,14,15,39,22.00
2009,07,14,15,40,22.00
2009,07,14,15,41,22.10
2009,07,14,15,42,22.20
2009,07,14,15,43,22.40
2009,07,14,15,44,22.40
2009,07,14,15,45,22.40
2009,07,14,15,46,22.40
2009,07,14,15,47,22.30
2009,07,14,15,48,22.30
2009,07,14,15,49,22.40
2009,07,14,15,50,22.40
2009,07,14,15,51,22.30
2009,07,14,15,52,22.30
2009,07,14,15,53,22.30
2009,07,14,15,54,22.30
2009,07,14,15,55,22.30
2009,07,14,15,56,22.20
2009,07,14,15,57,22.30
2009,07,14,15,58,22.30
2009,07,14,15,59,22.30
2009,07,14,16,00,22.30
2009,07,14,16,01,22.30
2009,07,14,16,02,22.20
2009,07,14,16,03,22.20
2009,07,14,16,04,22.20
2009,07,14,16,05,22.20
2009,07,14,16,06,22.20
2009,07,14,16,07,22.30
2009,07,14,16,08,22.40
2009,07,14,16,09,22.40
2009,07,14,16,10,22.30
2009,07,14,16,11,22.30
2009,07,14,16,12,22.30
2009,07,14,16,13,22.30
2009,07,14,16,14,22.30
2009,07,14,16,15,22.30
2009,07,14,16,16,22.30
2009,07,14,16,17,22.30
2009,07,14,16,18,22.30
2009,07,14,16,19,22.40
2009,07,14,16,20,22.50
2009,07,14,16,21,22.60
2009,07,14,16,22,22.70
2009,07,14,16,23,22.70
2009,07,14,16,24,22.60
2009,07,14,16,25,22.60
2009,07,14,16,26,22.50
2009,07,14,16,27,22.40
2009,07,14,16,28,22.40
2009,07,14,16,29,22.40
2009,07,14,16,30,22.30
2009,07,14,16,31,22.30
2009,07,14,16,32,22.20
2009,07,14,16,33,22.20
2009,07,14,16,34,22.20
2009,07,14,16,35,22.10
2009,07,14,16,36,22.20
2009,07,14,16,37,22.20
2009,07,14,16,38,22.20
2009,07,14,16,39,22.20
2009,07,14,16,40,22.20
2009,07,14,16,41,22.20
2009,07,14,16,42,22.10
2009,07,14,16,43,22.10
2009,07,14,16,44,22.20
2009,07,14,16,45,22.20
2009,07,14,16,46,22.30
2009,07,14,16,47,22.40
2009,07,14,16,48,22.40
2009,07,14,16,49,22.50
2009,07,14,16,50,22.50
2009,07,14,16,51,22.50
2009,07,14,16,52,22.40
2009,07,14,16,53,22.30
2009,07,14,16,54,22.30
2009,07,14,16,55,22.20
2009,07,14,16,56,22.10
2009,07,14,16,57,22.10
2009,07,14,16,58,22.10
2009,07,14,16,59,22.10
2009,07,14,17,00,22.20
2009,07,14,17,01,22.20
2009,07,14,17,02,22.20
2009,07,14,17,03,22.10
2009,07,14,17,04,22.00
2009,07,14,17,05,22.00
2009,07,14,17,06,21.90
2009,07,14,17,07,21.90
2009,07,14,17,08,22.00
2009,07,14,17,09,22.00
2009,07,14,17,10,22.00
2009,07,14,17,11,22.00
2009,07,14,17,12,22.10
2009,07,14,17,13,22.10
2009,07,14,17,14,22.20
2009,07,14,17,15,22.30
2009,07,14,17,16,22.30
2009,07,14,17,17,22.20
2009,07,14,17,18,22.20
2009,07,14,17,19,22.10
2009,07,14,17,20,22.00
2009,07,14,17,21,22.00
2009,07,14,17,22,22.00
2009,07,14,17,23,22.10
2009,07,14,17,24,22.10
2009,07,14,17,25,22.10
2009,07,14,17,26,22.20
2009,07,14,17,27,22.20
2009,07,14,17,28,22.20
2009,07,14,17,29,22.30
2009,07,14,17,30,22.30
2009,07,14,17,31,22.40
2009,07,14,17,32,22.50
2009,07,14,17,33,22.50
2009,07,14,17,34,22.60
2009,07,14,17,35,22.60
2009,07,14,17,36,22.70
2009,07,14,17,37,22.70
2009,07,14,17,38,22.60
2009,07,14,17,39,22.60
2009,07,14,17,40,22.60
2009,07,14,17,41,22.50
2009,07,14,17,42,22.30
2009,07,14,17,43,22.20
2009,07,14,17,44,22.10
2009,07,14,17,45,22.10
2009,07,14,17,46,22.20
2009,07,14,17,47,22.20
2009,07,14,17,48,22.20
2009,07,14,17,49,22.20
2009,07,14,17,50,22.20
2009,07,14,17,51,22.20
2009,07,14,17,52,22.20
2009,07,14,17,53,22.20
2009,07,14,17,54,22.20
2009,07,14,17,55,22.10
2009,07,14,17,56,22.00
2009,07,14,17,57,21.90
2009,07,14,17,58,21.80
2009,07,14,17,59,21.80
2009,07,14,18,00,21.80
2009,07,14,18,01,21.80
2009,07,14,18,02,21.80
2009,07,14,18,03,21.80
2009,07,14,18,04,21.80
2009,07,14,18,05,21.80
2009,07,14,18,06,21.80
2009,07,14,18,07,21.70
2009,07,14,18,08,21.70
2009,07,14,18,09,21.70
2009,07,14,18,10,21.80
2009,07,14,18,11,21.80
2009,07,14,18,12,21.80
2009,07,14,18,13,21.80
2009,07,14,18,14,21.90
2009,07,14,18,15,21.90
2009,07,14,18,16,21.90
2009,07,14,18,17,21.90
2009,07,14,18,18,21.90
2009,07,14,18,19,21.90
2009,07,14,18,20,21.90
2009,07,14,18,21,21.90
2009,07,14,18,22,21.90
2009,07,14,18,23,21.90
2009,07,14,18,24,21.90
2009,07,14,18,25,21.90
2009,07,14,18,26,21.80
2009,07,14,18,27,21.70
2009,07,14,18,28,21.60
2009,07,14,18,29,21.50
2009,07,14,18,30,21.50
2009,07,14,18,31,21.40
2009,07,14,18,32,21.40
2009,07,14,18,33,21.40
2009,07,14,18,34,21.40
2009,07,14,18,35,21.40
2009,07,14,18,36,21.40
2009,07,14,18,37,21.50
2009,07,14,18,38,21.50
2009,07,14,18,39,21.50
2009,07,14,18,40,21.60
2009,07,14,18,41,21.60
2009,07,14,18,42,21.60
2009,07,14,18,43,21.60
2009,07,14,18,44,21.50
2009,07,14,18,45,21.50
2009,07,14,18,46,21.50
2009,07,14,18,47,21.50
2009,07,14,18,48,21.60
2009,07,14,18,49,21.60
2009,07,14,18,50,21.60
2009,07,14,18,51,21.60
2009,07,14,18,52,21.60
2009,07,14,18,53,21.60
2009,07,14,18,54,21.60
2009,07,14,18,55,21.50
2009,07,14,18,56,21.40
2009,07,14,18,57,21.40
2009,07,14,18,58,21.40
2009,07,14,18,59,21.30
2009,07,14,19,00,21.30
2009,07,14,19,01,21.20
2009,07,14,19,02,21.20
2009,07,14,19,03,21.20
2009,07,14,19,04,21.20
2009,07,14,19,05,21.20
2009,07,14,19,06,21.30
2009,07,14,19,07,21.30
2009,07,14,19,08,21.30
2009,07,14,19,09,21.40
2009,07,14,19,10,21.40
2009,07,14,19,11,21.30
2009,07,14,19,12,21.30
2009,07,14,19,13,21.30
2009,07,14,19,14,21.30
2009,07,14,19,15,21.30
2009,07,14,19,16,21.30
2009,07,14,19,17,21.30
2009,07,14,19,18,21.30
2009,07,14,19,19,21.30
2009,07,14,19,20,21.30
2009,07,14,19,21,21.30
2009,07,14,19,22,21.30
